Regional Weather Roundup
Issued by NWS Sterling, VA

Home | Current Version | Previous Version | Graphics & Text | Print | Product List | Glossary On
Versions: 1 2 3 4 5 6 7 8 9 10 11 12 13 14 15 16 17 18 19 20 21 22 23 24 25 26 27 28 29 30 31 32 33 34 35 36 37 38 39 40 41 42 43 44 45 46 47 48 49 50
000
ASUS41 KLWX 300810
RWRLWX

REGIONAL WEATHER ROUNDUP
NATIONAL WEATHER SERVICE BALTIMORE MD/WASHINGTON DC
400 AM EDT WED JUL 30 2014

Note: "FAIR" indicates few or no clouds below 12,000 feet
with no significant weather and/or obstructions to visibility.
 TC=TEMPERATURE CELSIUS

 * =Non NWS site. Station does not report precipitation (e.g. rain,
    snow, etc.), thunder, or fog.

DCZ001-MDZ009-015-VAZ040>042-051-053>054-300900-
WASHINGTON METRO
  /KDAA//-FT BELVOIR

CITY           SKY/WX    TMP DP  RH WIND       PRES   REMARKS
WASHINGTON NAT MOCLDY    62  51  67 N3        30.03S
DULLES         CLEAR     51  48  89 CALM      30.03S
ANDREWS AFB    CLEAR     57  51  80 NW2       30.02S
QUANTICO       CLEAR     57  52  83 NW9       30.04S
COLLEGE PARK*  CLEAR     55  54  94 CALM      30.02S
LEESBURG*      CLEAR     54  52  94 CALM      30.04S
MANASSAS*      CLEAR     52  52 100 CALM      30.04S
GAITHERSBURG*  CLEAR     52  48  87 CALM      30.07S

$$

MDZ006>007-011-014-300900-
BALTIMORE METRO

CITY           SKY/WX    TMP DP  RH WIND       PRES   REMARKS
BWI AIRPORT    CLEAR     57  51  80 W5        30.01S
MD SCIENCE CTR   N/A     64  51  62 MISG      30.01S
MARTIN STATE   CLEAR     59  55  88 CALM      30.02S
ANNAPOLIS      CLEAR     61  51  70 W6        30.00S
FORT MEADE*    CLEAR     52  50  93 CALM      30.04S

$$

MDZ012-015-019>023-300900-
MARYLAND EASTERN SHORE

CITY           SKY/WX    TMP DP  RH WIND       PRES   REMARKS
OCEAN CITY     CLEAR     57  53  86 NW3       29.98S
SALISBURY      NOT AVBL
BAY BRIDGE AP*   N/A     64  55  72 NW3       30.00S
CAMBRIDGE*     CLEAR     59  54  82 CALM      29.99S
EASTON*        CLEAR     62  60  92 CALM      30.03S

$$

MDZ017>025-300900-
SOUTHERN MARYLAND

CITY           SKY/WX    TMP DP  RH WIND       PRES   REMARKS
PATUXENT RIVER CLEAR     60  52  74 W7        30.00S
ST INIGOES     CLEAR     57  51  80 CALM      30.00S
LEONARDTOWN*   CLEAR     54  48  82 W3        30.02S

$$

MDZ003>005-300900-
NORTH CENTRAL MARYLAND

CITY           SKY/WX    TMP DP  RH WIND       PRES   REMARKS
FREDERICK*     CLEAR     54  54 100 SE3       30.06S
HAGERSTOWN APT CLEAR     54  51  90 E3        30.04R
WESTMINSTER*   PTCLDY    55  54  94 CALM      30.03S

$$

MDZ501>502-300900-
WESTERN MARYLAND

CITY           SKY/WX    TMP DP  RH WIND       PRES   REMARKS
OAKLAND*       CLEAR     46 N/A N/A SW5       30.08F
CUMBERLAND*    CLEAR     52  48  87 CALM      30.10S

$$

VAZ025>031-300900-
SHENANDOAH VALLEY

CITY           SKY/WX    TMP DP  RH WIND       PRES   REMARKS
WINCHESTER*    CLEAR     52  50  93 CALM      30.04S
STAUNTON*      CLEAR     51  49  91 CALM      30.09S

$$

WVZ021-048>050-054>055-300900-
EASTERN WEST VIRGINIA PANHANDLE

CITY           SKY/WX    TMP DP  RH WIND       PRES   REMARKS
MARTINSBURG    CLEAR     51  47  86 CALM      30.04S
PETERSBURG*    PTCLDY    49  45  88 CALM      30.08S

$$

VAZ036>039-050-300900-
CENTRAL FOOTHILLS

CITY           SKY/WX    TMP DP  RH WIND       PRES   REMARKS
CHARLOTTESVILL MOCLDY    58  54  86 W3        30.05R
ORANGE*        CLEAR     54  50  87 CALM      30.06R

$$

VAZ055>057-300900-
NORTH AND CENTRAL PIEDMONT

CITY           SKY/WX    TMP DP  RH WIND       PRES   REMARKS
FREDERICKSBRG* CLEAR     57  53  86 CALM      30.03R
STAFFORD*      CLEAR     51  51 100 NW3       30.07S

$$

NCZ024-NYZ072-PAZ021-071-VAZ022-071-300900-
OTHER REGIONAL OBSERVATIONS

CITY           SKY/WX    TMP DP  RH WIND       PRES   REMARKS
NEW YORK CITY  CLOUDY    66  52  60 NW5       30.00R
PHILADELPHIA   PTCLDY    64  53  67 NW7       29.99S
PITTSBURGH     CLEAR     55  50  83 CALM      30.03S
ROANOKE        PTCLDY    59  52  77 CALM      30.10R
RICHMOND       CLOUDY    68  50  52 N6        30.02S
RALEIGH        MOCLDY    66  60  81 VRB5      30.03R

$$

ANZ530>537-300900-
MARINE OBSERVATIONS

STATION/POSITION TIME  TEMP    WIND        PRES
                       AIR SEA DIR/SP/G
                 (UTC) (F)     (DEG/KT/KT) (MB)
THOMAS PT LIGHT  0800   64 77  310/ 10/ 11 1016.6R
BALT KEY BRIDGE  0800   67     270/  6/  8 1015.9R
COVE POINT       0800   67     330/  8/ 11 1015.7F
LEWISETTA        0800   66 77  300/  5/  7 1015.8S
SOLOMONS ISLAND  0800      79                N/A
PINEY POINT      0800           10/  7/  8   N/A

$$




USA.gov is the U.S. government's official web portal to all federal, state and local government web resources and services.